APSTAR 1

导读

APSTAR 1,即亚太一号卫星,是中国于1994年7月21日成功发射的通信卫星。该卫星定位于地球静止轨道,主要为亚太地区提供通信、广播电视传输等服务,有效填补了区域通信容量缺口,推动了亚太地区信息互联互通,是中国早期商业通信卫星发展的重要实践,为后续亚太系列卫星的运营积累了宝贵经验。

基本信息
目录编号:
23185
目录名称:
APSTAR 1
国际标识:
1994-043A
轨道中心:
EARTH
卫星名称:
APSTAR 1
卫星全名:
--
卫星状态:
在轨 (已飞行11681 天)
发射日期:
1994-07-21 UTC
国别 :
中国 (CN)
星等 :
--
轨道信息
数据来源 国际轨道数据 AOE轨道数据
星历时间 2026-07-14T00:11:48+0800
13小时前
查看轨道信息
2026-07-13T23:00:00+0800
14小时前
查看轨道信息
半长轴 42417.596km 42417.51km
偏心率 0.0003689 0.0003816
轨道倾角 13.353° 13.353°
近地点辐角 48.286° 46.648°
升交点赤经 17.700° 17.702°
平近点角 323.954° 307.751°
近地点 36023.811km 36023.186km
远地点 36055.107km 36055.56km
周期 1449.035分钟 1449.030分钟
每日圈数 0.993765 0.993768
详细信息
使用方式:
暂无
2D轨道图
3D轨道图
轨道高度分析图
轨道倾角分析图
轨道综合分析图
查看轨道综合分析图